[ ตารางข้อมูล ] [ Min-Max ] [ วันนี้4 ] [ วันนี้2 ] [ เทียบ3วัน A ] [ เทียบ4วัน B ]   

วันนี้2   [ ◀ ช่วงเก่ากว่า ] [ ช่วงที่ 203 ] [ ช่วงใหม่กว่า ▶ ] [ ล่าสุด ]    [ 3 ชั่วโมง ] [ 6 ชั่วโมง ] [ 12 ชั่วโมง ] [ 24 ชั่วโมง ]   วันนี้2

อุณภูมิตู้ Knockdown4529  ราย 6 ชั่วโมง  ที่วัดได้ ในช่วงวันเวลา 15/03/2026 (02:14) ถึง 15/03/2026 (08:14) 
ความชื้นในตู้ Knockdown4529  ราย 6 ชั่วโมง  ที่วัดได้ ในช่วงวันเวลา 15/03/2026 (02:14) ถึง 15/03/2026 (08:14) 

 
DS18B20SHTC3 
IDDate d/m/Y & Timedata1
สูง
data2
ต่ำ
data3
นอก
temp
pcb
hum
pcb
Time
 2641  15/03/2026 08:14:12  26.5  26.4  27.4  26.3  70.8  08:14 
 2640  15/03/2026 08:09:31  26.5  26.4  27.4  26.6  70.9  08:09 
 2639  15/03/2026 08:04:50  26.4  26.4  27.0  26.6  70.9  08:04 
 2638  15/03/2026 08:00:09  26.4  26.3  27.0  26.2  71.0  08:00 
 2637  15/03/2026 07:55:27  26.4  26.3  26.6  26.4  71.0  07:55 
 2636  15/03/2026 07:50:45  26.3  26.3  26.2  26.2  71.2  07:50 
 2635  15/03/2026 07:46:03  26.3  26.3  25.8  26.4  71.2  07:46 
 2634  15/03/2026 07:41:21  26.3  26.3  25.5  26.2  71.2  07:41 
 2633  15/03/2026 07:36:39  26.3  26.3  25.4  26.2  71.3  07:36 
 2632  15/03/2026 07:31:57  26.3  26.3  25.4  26.4  71.2  07:31 
 2631  15/03/2026 07:27:17  26.3  26.4  25.4  26.3  71.3  07:27 
 2630  15/03/2026 07:22:35  26.3  26.4  25.3  26.4  71.3  07:22 
 2629  15/03/2026 07:17:54  26.3  26.4  25.4  26.3  71.3  07:17 
 2628  15/03/2026 07:13:12  26.3  26.4  25.4  26.4  71.2  07:13 
 2627  15/03/2026 07:08:30  26.4  26.4  25.3  26.4  71.3  07:08 
 2626  15/03/2026 07:03:49  26.4  26.4  25.3  26.4  71.3  07:03 
 2625  15/03/2026 06:59:08  26.4  26.4  25.2  26.4  71.3  06:59 
 2624  15/03/2026 06:54:25  26.4  26.4  25.1  26.2  71.3  06:54 
 2623  15/03/2026 06:49:44  26.4  26.4  25.0  26.2  71.3  06:49 
 2622  15/03/2026 06:45:02  26.4  26.4  25.0  26.2  71.3  06:45 
 2621  15/03/2026 06:40:21  26.4  26.5  25.2  26.5  71.4  06:40 
 2620  15/03/2026 06:35:37  26.4  26.5  25.3  26.4  71.3  06:35 
 2619  15/03/2026 06:30:56  26.4  26.5  25.2  26.4  71.3  06:30 
 2618  15/03/2026 06:26:15  26.5  26.6  25.4  26.5  71.4  06:26 

Data every 5 minute.


ใช้เวลาประมวลผล 0.00295 วินาที